Location: Home
(42.5358°N, 72.7383°W)
Time: 06:49:01
(UTC-05:00)

Envisat - Pass Details

Date: 27 October 2021
Orbit: 764 x 766 km, 98.2° (Epoch: 07 December)

Event Time Altitude Azimuth Distance (km) Brightness Sun altitude
Rises 05:07:50 0° 24° (NNE) 3,241 6.6 -24.7°
Reaches altitude 10° 05:10:27 10° 35° (NE) 2,309 6.0 -24.2°
Maximum altitude 05:14:50 29° 95° (E) 1,387 5.0 -23.4°
Drops below altitude 10° 05:19:11 10° 155° (SSE) 2,294 5.7 -22.6°
Sets 05:21:46 0° 166° (SSE) 3,214 6.4 -22.1°
